This demonstration page uses our WeatherBlox Daily Observations layout. Learn more.

Left ArrowRight Arrow

47.50024, -111.30081

Hourly Observations for July 8, 2020

Temp ( °F °C ) Dew Point ( °F °C ) Humidity (%) Winds ( mph kmh ) Pressure ( in mb ) Visibility ( mi km ) Precip ( " mm )
1:53 am 01:53 Clear 55 12.8 37 2.8 51 51 WSW 18 30 29.83 1010 10 16 0.00 0.00
2:53 am 02:53 Clear 55 12.8 34 1.1 45 45 WSW 16 26 29.81 1010 10 16 0.00 0.00
3:53 am 03:53 Clear 52 11.1 38 3.3 59 59 SSW 12 19 29.82 1010 10 16 0.00 0.00
4:53 am 04:53 Clear 54 12.2 37 2.8 53 53 SW 21 33 29.80 1009 10 16 0.00 0.00
5:53 am 05:53 Sunny 53 11.7 37 2.8 55 55 SW 21 33 29.82 1010 10 16 0.00 0.00
6:53 am 06:53 Sunny 55 12.8 37 2.8 51 51 SW 17 28 29.81 1010 10 16 0.00 0.00
7:53 am 07:53 Sunny 59 15 38 3.3 46 46 SW 22 35 29.81 1009 10 16 0.00 0.00
8:53 am 08:53 Sunny 61 16.1 39 3.9 44 44 SW 25 41 29.82 1010 10 16 0.00 0.00
9:53 am 09:53 Sunny 64 17.8 39 3.9 40 40 SW 22 35 29.83 1010 10 16 0.00 0.00
10:53 am 10:53 Mostly Sunny 67 19.4 36 2.2 32 32 W 25 41 29.84 1011 10 16 0.00 0.00
11:53 am 11:53 Sunny 67 19.4 36 2.2 32 32 W 22 35 29.85 1011 10 16 0.00 0.00
12:53 pm 12:53 Sunny 71 21.7 37 2.8 29 29 W 23 37 29.84 1011 10 16 0.00 0.00
1:53 pm 13:53 Cloudy 70 21.1 39 3.9 32 32 WSW 24 39 29.84 1011 10 16 0.00 0.00
2:53 pm 14:53 Mostly Sunny 73 22.8 38 3.3 28 28 W 23 37 29.84 1011 10 16 0.00 0.00
3:53 pm 15:53 Sunny 74 23.3 36 2.2 25 25 W 23 37 29.86 1011 10 16 0.00 0.00
4:53 pm 16:53 Partly Cloudy 75 23.9 38 3.3 26 26 W 18 30 29.86 1011 10 16 0.00 0.00
5:53 pm 17:53 Sunny 74 23.3 36 2.2 25 25 W 17 28 29.87 1011 10 16 0.00 0.00
6:53 pm 18:53 Sunny 73 22.8 35 1.7 25 25 WNW 12 19 29.88 1012 10 16 0.00 0.00
7:53 pm 19:53 Sunny 71 21.7 35 1.7 27 27 WNW 12 19 29.89 1012 10 16 0.00 0.00
8:53 pm 20:53 Sunny 64 17.8 41 5 43 43 N 7 11 29.91 1013 10 16 0.00 0.00
9:53 pm 21:53 Cloudy 59 15 39 3.9 48 48 Calm 29.94 1014 10 16 0.00 0.00
10:53 pm 22:53 Mostly Clear 55 12.8 39 3.9 55 55 NW 3 6 29.96 1014 10 16 0.00 0.00
11:53 pm 23:53 Clear 54 12.2 40 4.4 59 59 SE 3 6 29.97 1015 10 16 0.00 0.00

Powered by AerisWeather